N0LSD-13 Weather Reports


Display with metric or nautical units.
time (UTC)temp
F
wind
direction
speed
MPH
gust
MPH
rain 1hr
in
rain 24hr
in
rain mn
in
humidity
%
barometer
mb
20260507003004 44 293 0.0 0.0 0.00 0.56 0.40 92 992.6
20260507002004 44 293 0.0 0.0 0.00 0.59 0.40 92 992.4
20260507001004 44 293 0.0 0.0 0.00 0.62 0.40 92 992.3
20260507000004 44 293 0.0 0.0 0.00 0.65 0.40 92 992.4
20260506235004 44 292 0.0 1.0 0.00 0.69 0.40 92 992.3
20260506234004 44 307 0.0 0.0 0.00 0.73 0.40 92 992.2
20260506233004 44 307 0.0 2.0 0.00 0.75 0.40 91 992.1
20260506232004 44 288 0.0 2.0 0.00 0.76 0.40 91 992.2
20260506230004 44 284 1.0 1.0 0.00 0.78 0.40 93 992.0
20260506223005 43 293 1.0 5.0 0.00 0.82 0.40 95 991.5
20260506222004 43 286 1.0 5.0 0.00 0.83 0.40 96 991.4
20260506221004 43 290 1.0 3.0 0.00 0.85 0.40 96 991.3
20260506220004 43 291 1.0 5.0 0.00 0.87 0.40 97 991.1
20260506215006 43 289 2.0 6.0 0.00 0.88 0.40 97 991.3
20260506211005 43 270 2.0 7.0 0.00 0.98 0.40 97 990.7
20260506210004 44 289 2.0 8.0 0.00 1.00 0.40 96 990.6
20260506205004 44 257 2.0 12.0 0.00 1.02 0.40 95 990.7
20260506204004 46 242 5.0 13.0 0.00 1.03 0.40 93 990.2
20260506203004 48 237 6.0 13.0 0.00 1.03 0.40 90 990.2
20260506202005 51 233 6.0 12.0 0.00 1.03 0.40 84 989.9
20260506201004 51 166 3.0 13.0 0.00 1.03 0.40 82 989.9
20260506200004 51 216 5.0 10.0 0.00 1.03 0.40 82 989.9
20260506195004 51 213 3.0 6.0 0.00 1.03 0.40 83 989.5
20260506194004 52 244 3.0 9.0 0.00 1.03 0.40 82 989.7
20260506193004 52 238 3.0 6.0 0.00 1.03 0.40 83 989.6
20260506192005 50 259 1.0 5.0 0.00 1.03 0.40 86 989.7
20260506191006 51 265 1.0 7.0 0.00 1.03 0.40 86 989.7
20260506190005 51 256 1.0 3.0 0.00 1.03 0.40 84 989.7
20260506185005 51 263 1.0 2.0 0.00 1.03 0.40 82 989.6
20260506184005 52 289 0.0 1.0 0.00 1.03 0.40 82 989.6
20260506183006 53 290 0.0 2.0 0.00 1.03 0.40 82 989.3
20260506182004 52 286 0.0 0.0 0.00 1.03 0.40 84 989.4
20260506175004 50 293 0.0 2.0 0.00 1.03 0.40 85 989.6
20260506173004 50 285 0.0 1.0 0.00 1.03 0.40 90 989.6
20260506172007 49 284 0.0 1.0 0.00 1.03 0.40 92 989.8
20260506171004 48 287 0.0 1.0 0.00 1.03 0.40 94 989.9
20260506170005 48 323 0.0 1.0 0.00 1.03 0.40 96 989.8
20260506165004 48 314 1.0 2.0 0.00 1.03 0.40 97 989.5
20260506164004 47 321 0.0 2.0 0.00 1.03 0.40 97 989.7
20260506163004 48 302 0.0 3.0 0.00 1.03 0.40 98 989.4
20260506162004 47 318 0.0 2.0 0.00 1.03 0.40 98 989.3
20260506160005 47 316 0.0 1.0 0.00 1.03 0.40 99 989.7
20260506154006 46 316 0.0 1.0 0.00 1.03 0.40 99 989.6
20260506153004 46 316 0.0 2.0 0.00 1.03 0.40 99 989.4
20260506152004 47 317 1.0 2.0 0.00 1.03 0.40 99 989.3
20260506151004 46 326 1.0 3.0 0.00 1.03 0.40 99 989.3
20260506150004 46 319 1.0 2.0 0.00 1.03 0.40 99 989.4
20260506145005 46 294 0.0 2.0 0.01 1.03 0.40 99 989.3
20260506144005 46 297 1.0 2.0 0.01 1.03 0.40 99 989.1
20260506143005 46 315 1.0 2.0 0.01 1.03 0.40 99 989.1
20260506142004 46 321 1.0 2.0 0.01 1.03 0.40 99 989.0
20260506141004 46 309 0.0 2.0 0.01 1.03 0.40 99 989.2
20260506140007 45 306 1.0 3.0 0.01 1.03 0.40 99 989.0
20260506135004 45 313 1.0 2.0 0.00 1.02 0.39 99 988.8
20260506134007 45 312 1.0 5.0 0.00 1.02 0.39 99 988.9
20260506133004 45 321 1.0 2.0 0.01 1.02 0.39 99 988.8
20260506131004 45 321 0.0 2.0 0.02 1.02 0.39 99 988.5
20260506130004 45 319 1.0 2.0 0.02 1.02 0.39 99 988.5
20260506125004 44 341 1.0 2.0 0.02 1.02 0.39 99 988.6
20260506124005 45 312 0.0 5.0 0.02 1.02 0.39 99 988.5
20260506123004 45 315 1.0 3.0 0.01 1.01 0.38 99 988.4
20260506122004 44 336 1.0 6.0 0.02 1.01 0.38 99 988.3
20260506121005 44 0 3.0 6.0 0.02 1.00 0.37 99 988.1
20260506120005 44 4 2.0 5.0 0.02 1.00 0.37 99 988.2
20260506115006 45 355 2.0 7.0 0.02 1.00 0.37 99 988.1
20260506114004 45 355 3.0 7.0 0.03 1.00 0.37 99 988.1
20260506113004 46 348 2.0 6.0 0.03 1.00 0.37 99 987.9
20260506112004 45 322 1.0 3.0 0.02 0.99 0.36 99 987.9
20260506111005 45 324 1.0 3.0 0.02 0.98 0.35 99 988.1
20260506104006 45 314 0.0 2.0 0.02 0.97 0.34 99 987.9
20260506102004 45 322 1.0 2.0 0.04 0.97 0.34 99 987.8
20260506100004 44 323 2.0 5.0 0.04 0.96 0.33 99 988.0
20260506095004 45 319 2.0 6.0 0.04 0.95 0.32 99 988.3
20260506094004 45 331 1.0 5.0 0.05 0.95 0.32 99 988.2
20260506093005 45 320 1.0 5.0 0.05 0.94 0.31 99 988.2
20260506090004 46 321 1.0 3.0 0.06 0.92 0.29 99 988.1
20260506084004 46 310 1.0 5.0 0.06 0.90 0.27 99 988.1
20260506083004 46 322 2.0 5.0 0.06 0.89 0.26 99 987.9
20260506082004 47 332 2.0 5.0 0.06 0.88 0.25 99 987.8
20260506081004 47 315 1.0 3.0 0.05 0.87 0.24 99 987.9
20260506073005 48 312 0.0 1.0 0.04 0.83 0.20 99 988.1
20260506071004 48 311 0.0 1.0 0.04 0.82 0.19 99 988.0
20260506062004 48 311 0.0 2.0 0.03 0.78 0.15 99 988.3
20260506061005 48 307 0.0 2.0 0.04 0.78 0.15 99 988.0
20260506045004 48 289 0.0 1.0 0.06 0.73 0.06 99 988.8
20260506044004 48 284 0.0 1.0 0.04 0.71 0.04 99 988.6
20260506043004 48 284 0.0 0.0 0.03 0.70 0.03 99 988.8
20260506042004 48 284 0.0 0.0 0.01 0.68 0.01 99 988.6
20260506041004 48 284 0.0 1.0 0.01 0.67 0.00 99 988.4
20260506040004 48 284 0.0 1.0 0.02 0.67 0.00 99 988.7
20260506035004 48 284 0.0 1.0 0.03 0.67 0.67 99 988.4
20260506034004 48 283 0.0 1.0 0.04 0.67 0.67 99 988.7
20260506033005 48 284 0.0 0.0 0.05 0.67 0.67 99 988.5
20260506032004 48 283 0.0 0.0 0.06 0.67 0.67 99 989.0
20260506031004 48 283 0.0 0.0 0.06 0.66 0.66 99 989.0
20260506030005 48 283 0.0 0.0 0.05 0.65 0.65 99 989.0
20260506025004 48 283 0.0 0.0 0.05 0.64 0.64 99 988.8
20260506023005 49 301 0.0 0.0 0.04 0.62 0.62 99 989.1
20260506022004 49 301 0.0 0.0 0.03 0.61 0.61 99 989.2
20260506020004 49 302 0.0 0.0 0.04 0.61 0.60 99 989.1
20260506015004 49 301 0.0 1.0 0.04 0.61 0.59 99 989.1
20260506014004 49 283 0.0 1.0 0.05 0.60 0.58 99 989.5
20260506013004 49 283 0.0 1.0 0.07 0.60 0.58 99 989.5
20260506012004 48 283 0.0 1.0 0.10 0.60 0.58 99 989.3
20260506011004 48 284 0.0 0.0 0.12 0.59 0.57 99 989.2
20260506010006 48 284 0.0 0.0 0.14 0.58 0.56 99 989.1
20260506005004 49 284 0.0 1.0 0.17 0.57 0.55 99 989.0